Regional Weather Roundup
Issued by NWS

Home | Current Version | Previous Version | Graphics & Text | Print | Product List | Glossary On
Versions: 1 2 3 4 5 6 7 8 9 10 11 12 13 14 15 16 17 18 19 20 21 22 23 24 25 26 27 28 29 30 31 32 33 34 35 36 37 38 39 40 41 42 43 44 45 46 47 48 49 50
000
ASUS43 KLMK 241502
RWRKY
KENTUCKY REGIONAL WEATHER ROUNDUP
NATIONAL WEATHER SERVICE LOUISVILLE KY
1100 AM EDT THU MAY 24 2018

NOTE "FAIR" INDICATES FEW OR NO CLOUDS BELOW 12,000 FEET
WITH NO SIGNIFICANT WEATHER AND/OR OBSTRUCTIONS TO VISIBILITY.

KYZ001>023-026-027-061>063-070>075-241600-
WESTERN AND SOUTH CENTRAL KENTUCKY

CITY           SKY/WX    TMP DP  RH WIND       PRES   REMARKS
PADUCAH        FAIR      81  67  62 E3        30.14F
HENDERSON      NOT AVBL
OWENSBORO      FAIR      77  64  64 NE5       30.17F
HOPKINSVILLE   FAIR      79  66  63 CALM      30.14F
BOWLING GREEN  FAIR      78  67  68 VRB3      30.15F
GLASGOW        NOT AVBL
$$

KYZ024-025-028>034-038-045-046-053-241600-
NORTH CENTRAL KENTUCKY

CITY           SKY/WX    TMP DP  RH WIND       PRES   REMARKS
LOUISVILLE/SDF FAIR      77  55  46 NE7       30.18F
LOUISVILLE/LOU FAIR      76  59  55 VRB6      30.19F
FORT KNOX      FAIR      74  59  60 NE6       30.19F
$$

KYZ035>037-039>044-047>052-055>060-089>105-241600-
NORTHEAST KENTUCKY

CITY           SKY/WX    TMP DP  RH WIND       PRES   REMARKS
LEXINGTON        N/A     74  60  61 VRB7      30.20F
COVINGTON      FAIR      73  56  54 E8        30.22F
FRANKFORT      FAIR      73  58  59 NE7       30.19S
$$

KYZ054-064>069-076>088-106>120-241600-
SOUTHEAST KENTUCKY

CITY           SKY/WX    TMP DP  RH WIND       PRES   REMARKS
JACKSON        FAIR      72  62  71 VRB3      30.19F
LONDON         FAIR      76  64  66 N3        30.18S
SOMERSET       NOT AVBL
MIDDLESBORO    FAIR      70  65  85 CALM      30.17F
MONTICELLO     FAIR      77  65  66 VRB7G17   30.18F
$$





USA.gov is the U.S. government's official web portal to all federal, state and local government web resources and services.